UAF1303 EGVN-ESPA

Flight info

Callsign UAF1303
Flight time N/A
Altitude 41000
Route KIDLI DCT BKY M183 REDFA DCT DISRA DCT SUTEB DCT OKMAM P850 DANKO M604 SVA M609 RIPAM DCT IXUMA DCT OSLAV DCT LUKIG DCT RISEM
Aircraft A332/H-DE1FGHIJ4J5LM1ORTUVWXY/LB2D1

Departure

Time 2026-05-05 15:58
Airport RAF Brize Norton (EGVN)

Arrival

Time N/A
Airport Luleå Airport (ESPA)
Time Latitude Longitude Altitude Speed Heading
2026-05-05 15:44 51.75668 -1.57786 270 ft 0 kts 316°
2026-05-05 15:47 51.75664 -1.57780 270 ft 2 kts 316°
2026-05-05 15:48 51.75650 -1.57759 272 ft 4 kts 316°
2026-05-05 15:48 51.75631 -1.57726 276 ft 4 kts 294°
2026-05-05 15:48 51.75625 -1.57683 276 ft 4 kts 251°
2026-05-05 15:48 51.75631 -1.57658 277 ft 2 kts 215°
2026-05-05 15:49 51.75635 -1.57652 277 ft 0 kts 201°
2026-05-05 15:50 51.75632 -1.57654 277 ft 1 kts 201°
2026-05-05 15:50 51.75605 -1.57671 274 ft 8 kts 201°
2026-05-05 15:50 51.75538 -1.57719 270 ft 12 kts 206°
2026-05-05 15:50 51.75463 -1.57782 270 ft 13 kts 208°
2026-05-05 15:51 51.75383 -1.57850 270 ft 13 kts 208°
2026-05-05 15:51 51.75300 -1.57921 270 ft 14 kts 207°
2026-05-05 15:51 51.75214 -1.57994 270 ft 14 kts 208°
2026-05-05 15:51 51.75124 -1.58072 271 ft 15 kts 208°
2026-05-05 15:52 51.75030 -1.58153 270 ft 16 kts 208°
2026-05-05 15:52 51.74931 -1.58239 270 ft 16 kts 208°
2026-05-05 15:52 51.74830 -1.58333 270 ft 16 kts 222°
2026-05-05 15:52 51.74729 -1.58411 270 ft 16 kts 201°
2026-05-05 15:53 51.74667 -1.58468 270 ft 9 kts 219°
2026-05-05 15:53 51.74642 -1.58560 270 ft 10 kts 252°
2026-05-05 15:53 51.74619 -1.58676 272 ft 12 kts 253°
2026-05-05 15:53 51.74596 -1.58804 270 ft 12 kts 253°
2026-05-05 15:54 51.74572 -1.58937 270 ft 13 kts 253°
2026-05-05 15:54 51.74547 -1.59074 270 ft 13 kts 253°
2026-05-05 15:54 51.74520 -1.59214 270 ft 13 kts 253°
2026-05-05 15:54 51.74494 -1.59359 270 ft 14 kts 254°
2026-05-05 15:55 51.74466 -1.59508 270 ft 14 kts 253°
2026-05-05 15:55 51.74438 -1.59660 270 ft 14 kts 253°
2026-05-05 15:55 51.74428 -1.59815 270 ft 14 kts 279°
2026-05-05 15:55 51.74470 -1.59956 270 ft 14 kts 298°
2026-05-05 15:56 51.74495 -1.60099 270 ft 13 kts 263°
2026-05-05 15:56 51.74492 -1.60243 270 ft 13 kts 289°
2026-05-05 15:56 51.74551 -1.60337 270 ft 12 kts 320°
2026-05-05 15:56 51.74606 -1.60386 271 ft 5 kts
2026-05-05 15:57 51.74616 -1.60353 271 ft 4 kts 63°
2026-05-05 15:57 51.74671 -1.60086 270 ft 62 kts 72°
2026-05-05 15:57 51.74868 -1.59004 272 ft 136 kts 73°
2026-05-05 15:57 51.75174 -1.57294 458 ft 175 kts 70°
2026-05-05 15:58 51.75521 -1.55400 1262 ft 174 kts 72°
2026-05-05 15:58 51.75844 -1.53527 2152 ft 176 kts 71°
2026-05-05 15:58 51.76219 -1.51552 2600 ft 192 kts 62°
2026-05-05 15:58 51.77192 -1.50087 2997 ft 198 kts 15°
2026-05-05 15:59 51.78532 -1.50236 3659 ft 199 kts 332°
2026-05-05 15:59 51.79442 -1.51920 4272 ft 210 kts 290°
2026-05-05 15:59 51.79451 -1.54311 4851 ft 221 kts 258°
2026-05-05 15:59 51.78988 -1.56688 5511 ft 223 kts 251°
2026-05-05 16:00 51.78420 -1.58972 6218 ft 224 kts 241°
2026-05-05 16:00 51.77328 -1.60764 6730 ft 227 kts 206°
2026-05-05 16:00 51.75814 -1.61299 7305 ft 225 kts 172°
2026-05-05 16:00 51.74364 -1.60423 7833 ft 226 kts 139°
2026-05-05 16:01 51.73446 -1.58401 8353 ft 227 kts 105°
2026-05-05 16:01 51.73360 -1.55893 8834 ft 230 kts 74°
2026-05-05 16:01 51.73874 -1.53338 8999 ft 251 kts 67°
2026-05-05 16:01 51.74509 -1.50593 9199 ft 271 kts 69°
2026-05-05 16:02 51.75131 -1.47658 9535 ft 286 kts 71°
2026-05-05 16:02 51.75717 -1.44562 10161 ft 292 kts 72°
2026-05-05 16:02 51.76297 -1.41312 10407 ft 312 kts 73°
2026-05-05 16:02 51.76900 -1.37823 10618 ft 333 kts 73°
2026-05-05 16:03 51.77520 -1.34156 11142 ft 341 kts 74°
2026-05-05 16:03 51.78117 -1.30437 11910 ft 344 kts 75°
2026-05-05 16:03 51.78708 -1.26659 12592 ft 348 kts 75°
2026-05-05 16:03 51.79303 -1.22849 13273 ft 352 kts 75°
2026-05-05 16:04 51.79907 -1.18999 13971 ft 356 kts 75°
2026-05-05 16:04 51.80512 -1.15155 14547 ft 361 kts 75°
2026-05-05 16:04 51.81141 -1.11167 14962 ft 370 kts 75°
2026-05-05 16:04 51.81773 -1.07147 15692 ft 370 kts 75°
2026-05-05 16:05 51.82407 -1.03107 16254 ft 374 kts 76°
2026-05-05 16:05 51.83048 -0.99006 16965 ft 375 kts 76°
2026-05-05 16:05 51.83689 -0.94890 17565 ft 379 kts 76°
2026-05-05 16:05 51.84332 -0.90745 18215 ft 381 kts 76°
2026-05-05 16:06 51.84979 -0.86575 18729 ft 386 kts 76°
2026-05-05 16:06 51.85638 -0.82323 19183 ft 392 kts 76°
2026-05-05 16:06 51.86291 -0.78101 19793 ft 393 kts 76°
2026-05-05 16:06 51.86959 -0.73779 20238 ft 400 kts 76°
2026-05-05 16:07 51.87632 -0.69410 20856 ft 401 kts 76°
2026-05-05 16:07 51.88309 -0.65002 21387 ft 406 kts 76°
2026-05-05 16:07 51.88993 -0.60545 21948 ft 410 kts 76°
2026-05-05 16:07 51.89680 -0.56048 22493 ft 414 kts 76°
2026-05-05 16:08 51.90374 -0.51494 23045 ft 419 kts 76°
2026-05-05 16:08 51.91073 -0.46894 23597 ft 423 kts 76°
2026-05-05 16:08 51.91778 -0.42242 24107 ft 426 kts 76°
2026-05-05 16:08 51.92474 -0.37635 24626 ft 429 kts 77°
2026-05-05 16:09 51.93184 -0.32923 25129 ft 432 kts 77°
2026-05-05 16:09 51.93897 -0.28176 25639 ft 435 kts 77°
2026-05-05 16:09 51.94612 -0.23399 26140 ft 438 kts 77°
2026-05-05 16:09 51.95331 -0.18583 26635 ft 441 kts 77°
2026-05-05 16:10 51.96052 -0.13733 27132 ft 444 kts 78°
2026-05-05 16:10 51.96776 -0.08851 27618 ft 447 kts 78°
2026-05-05 16:10 51.97503 -0.03934 28106 ft 450 kts 78°
2026-05-05 16:10 51.98235 0.01028 28579 ft 454 kts 78°
2026-05-05 16:11 51.98912 0.05975 28983 ft 457 kts 83°
2026-05-05 16:11 51.99927 0.21448 30383 ft 464 kts 87°
2026-05-05 16:12 52.00247 0.26676 30837 ft 467 kts 87°
2026-05-05 16:12 52.00879 0.37224 31705 ft 473 kts 87°
2026-05-05 16:13 52.01812 0.53208 32957 ft 478 kts 86°
2026-05-05 16:13 52.02120 0.58595 33289 ft 481 kts 86°
2026-05-05 16:13 52.02429 0.64020 33539 ft 484 kts 86°
2026-05-05 16:14 52.03041 0.74900 34207 ft 483 kts 86°
2026-05-05 16:14 52.03639 0.85702 34802 ft 483 kts 86°
2026-05-05 16:15 52.04230 0.96570 35411 ft 483 kts 86°
2026-05-05 16:15 52.04812 1.07468 35889 ft 485 kts 86°
2026-05-05 16:16 52.05386 1.18380 36452 ft 484 kts 86°
2026-05-05 16:16 52.05952 1.29282 36978 ft 484 kts 86°
2026-05-05 16:17 52.06505 1.40119 37521 ft 484 kts 87°
2026-05-05 16:17 52.06779 1.45576 37796 ft 484 kts 87°
2026-05-05 16:18 52.07319 1.56436 38409 ft 481 kts 87°
2026-05-05 16:18 52.07583 1.61864 38601 ft 482 kts 87°
2026-05-05 16:18 52.08106 1.72721 38931 ft 482 kts 87°
2026-05-05 16:19 52.08361 1.78088 39085 ft 482 kts 87°
2026-05-05 16:19 52.08616 1.83526 39234 ft 483 kts 87°
2026-05-05 16:19 52.09117 1.94420 39530 ft 483 kts 87°
2026-05-05 16:20 52.09608 2.05325 39795 ft 484 kts 87°
2026-05-05 16:20 52.10090 2.16249 40054 ft 485 kts 87°
2026-05-05 16:21 52.10559 2.27107 40325 ft 485 kts 87°
2026-05-05 16:22 52.11970 2.43402 40511 ft 492 kts 71°
2026-05-05 16:22 52.15054 2.53440 40259 ft 503 kts 54°
2026-05-05 16:23 52.19808 2.61684 40273 ft 504 kts 37°
2026-05-05 16:23 52.29137 2.69157 40439 ft 500 kts 11°
2026-05-05 16:24 52.36022 2.70224 40484 ft 497 kts 354°
2026-05-05 16:24 52.42757 2.68024 40507 ft 494 kts 337°
2026-05-05 16:25 52.45845 2.65787 40520 ft 491 kts 329°
2026-05-05 16:25 52.51292 2.59174 40569 ft 486 kts 311°
2026-05-05 16:25 52.53485 2.54986 40602 ft 483 kts 303°
2026-05-05 16:26 52.56583 2.45314 40637 ft 478 kts 286°
2026-05-05 16:26 52.57764 2.34659 40654 ft 474 kts 269°
2026-05-05 16:27 52.56951 2.24053 40662 ft 472 kts 252°
2026-05-05 16:27 52.54218 2.14315 40663 ft 471 kts 235°
2026-05-05 16:28 52.49815 2.06404 40648 ft 472 kts 218°
2026-05-05 16:28 52.44143 2.01041 40649 ft 473 kts 201°
2026-05-05 16:29 52.37769 1.98736 40661 ft 476 kts 184°
2026-05-05 16:29 52.31172 1.99670 40670 ft 480 kts 167°
2026-05-05 16:30 52.24992 2.03804 40668 ft 484 kts 150°
2026-05-05 16:30 52.19822 2.10723 40682 ft 488 kts 133°
2026-05-05 16:31 52.16055 2.19936 40682 ft 493 kts 116°
2026-05-05 16:31 52.14071 2.30632 40658 ft 497 kts 99°
2026-05-05 16:32 52.14062 2.41896 40639 ft 501 kts 82°
2026-05-05 16:32 52.16022 2.52707 40562 ft 506 kts 65°
2026-05-05 16:33 52.19793 2.62242 40365 ft 498 kts 48°
2026-05-05 16:33 52.22113 2.66383 40155 ft 492 kts 46°
2026-05-05 16:33 52.24511 2.70332 39762 ft 489 kts 41°
2026-05-05 16:34 52.27115 2.73887 39295 ft 488 kts 39°
2026-05-05 16:34 52.29760 2.77377 39019 ft 491 kts 39°
2026-05-05 16:34 52.32408 2.80913 39164 ft 491 kts 39°
2026-05-05 16:34 52.35028 2.84451 39527 ft 486 kts 40°
2026-05-05 16:35 52.37576 2.87929 39872 ft 482 kts 40°
2026-05-05 16:35 52.40138 2.91466 40131 ft 481 kts 40°
2026-05-05 16:35 52.42688 2.95023 40267 ft 483 kts 40°
2026-05-05 16:35 52.45240 2.98623 40342 ft 486 kts 40°
2026-05-05 16:36 52.47808 3.02280 40179 ft 494 kts 40°
2026-05-05 16:36 52.50390 3.06126 39591 ft 508 kts 48°
2026-05-05 16:36 52.52681 3.10531 39149 ft 508 kts 51°
2026-05-05 16:36 52.54947 3.14978 39001 ft 507 kts 49°
2026-05-05 16:37 52.59752 3.23358 38970 ft 508 kts 45°
2026-05-05 16:37 52.64820 3.31452 38958 ft 508 kts 44°
2026-05-05 16:38 52.69925 3.39490 38957 ft 508 kts 44°
2026-05-05 16:38 52.75031 3.47566 38966 ft 509 kts 44°
2026-05-05 16:39 52.80100 3.55620 38971 ft 509 kts 44°
2026-05-05 16:39 52.85197 3.63749 38962 ft 509 kts 44°
2026-05-05 16:40 52.90287 3.71895 38962 ft 509 kts 44°
2026-05-05 16:40 52.95374 3.80066 38971 ft 509 kts 44°
2026-05-05 16:41 53.00428 3.88211 38948 ft 510 kts 44°
2026-05-05 16:41 53.05511 3.96429 38944 ft 510 kts 44°
2026-05-05 16:42 53.10588 4.04667 38963 ft 510 kts 44°
2026-05-05 16:42 53.15667 4.12934 38959 ft 511 kts 44°
2026-05-05 16:43 53.20705 4.21171 38960 ft 511 kts 44°
2026-05-05 16:43 53.25778 4.29489 38962 ft 511 kts 44°
2026-05-05 16:44 53.31016 4.37491 38964 ft 510 kts 36°
2026-05-05 16:44 53.37053 4.43628 38977 ft 508 kts 23°
2026-05-05 16:45 53.43593 4.47792 38970 ft 506 kts 17°
2026-05-05 16:45 53.50246 4.51671 38980 ft 506 kts 17°
2026-05-05 16:46 53.56896 4.55552 38980 ft 506 kts 17°
2026-05-05 16:46 53.63551 4.59431 38975 ft 506 kts 17°
2026-05-05 16:47 53.70218 4.63327 38982 ft 508 kts 17°
2026-05-05 16:47 53.76861 4.67221 38980 ft 509 kts 17°
2026-05-05 16:48 53.83546 4.71153 38979 ft 509 kts 17°
2026-05-05 16:48 53.90232 4.75100 38985 ft 509 kts 17°
2026-05-05 16:49 53.96891 4.79044 38972 ft 507 kts 17°
2026-05-05 16:49 54.03503 4.82973 38971 ft 507 kts 17°
2026-05-05 16:50 54.10156 4.86940 38969 ft 507 kts 17°
2026-05-05 16:50 54.16812 4.90922 38976 ft 507 kts 17°
2026-05-05 16:51 54.23468 4.94918 38971 ft 507 kts 17°
2026-05-05 16:51 54.30072 4.98896 38972 ft 507 kts 17°
2026-05-05 16:52 54.36725 5.02917 38971 ft 507 kts 17°
2026-05-05 16:52 54.43379 5.06954 38971 ft 507 kts 17°
2026-05-05 16:53 54.50036 5.11006 38977 ft 507 kts 17°
2026-05-05 16:53 54.56689 5.15069 38976 ft 507 kts 17°
2026-05-05 16:54 54.63300 5.19120 38971 ft 508 kts 17°
2026-05-05 16:54 54.69953 5.23213 38968 ft 507 kts 17°
2026-05-05 16:55 54.76604 5.27317 38976 ft 508 kts 17°
2026-05-05 16:55 54.83257 5.31437 38985 ft 508 kts 17°
2026-05-05 16:56 54.89861 5.35542 39008 ft 508 kts 17°
2026-05-05 16:56 54.96510 5.39688 38979 ft 508 kts 17°
2026-05-05 16:57 55.03169 5.43810 38979 ft 507 kts 16°
2026-05-05 16:57 55.09855 5.47750 38980 ft 508 kts 16°
2026-05-05 16:58 55.16556 5.51706 38985 ft 509 kts 16°
2026-05-05 16:58 55.23212 5.55675 38981 ft 509 kts 16°
2026-05-05 16:59 55.29913 5.59692 38981 ft 509 kts 16°
2026-05-05 16:59 55.36609 5.63721 38979 ft 509 kts 16°
2026-05-05 17:00 55.43311 5.67768 38983 ft 510 kts 16°
2026-05-05 17:00 55.49971 5.71804 38982 ft 510 kts 16°
2026-05-05 17:01 55.56673 5.75879 38980 ft 509 kts 16°
2026-05-05 17:01 55.63376 5.79970 38983 ft 509 kts 16°
2026-05-05 17:02 55.70068 5.84071 38984 ft 509 kts 15°
2026-05-05 17:02 55.76714 5.88157 38985 ft 509 kts 15°
2026-05-05 17:03 55.83405 5.92285 38985 ft 509 kts 15°
2026-05-05 17:03 55.90091 5.96425 38988 ft 509 kts 16°
2026-05-05 17:04 55.96779 6.00582 38991 ft 509 kts 16°
2026-05-05 17:04 56.03466 6.04753 38991 ft 509 kts 16°
2026-05-05 17:05 56.10103 6.08908 38991 ft 509 kts 16°
2026-05-05 17:05 56.16786 6.13108 39001 ft 509 kts 15°
2026-05-05 17:06 56.23462 6.17319 38994 ft 508 kts 15°
2026-05-05 17:06 56.30140 6.21546 38999 ft 508 kts 16°
2026-05-05 17:07 56.36764 6.25754 38999 ft 509 kts 16°
2026-05-05 17:07 56.43439 6.30012 39011 ft 509 kts 15°
2026-05-05 17:08 56.50120 6.34289 39004 ft 509 kts 15°
2026-05-05 17:08 56.56803 6.38582 38996 ft 509 kts 15°
2026-05-05 17:09 56.63438 6.42861 39001 ft 510 kts 15°
2026-05-05 17:09 56.70123 6.47190 39003 ft 511 kts 15°
2026-05-05 17:10 56.76813 6.51537 39002 ft 511 kts 15°
2026-05-05 17:10 56.83503 6.55900 39008 ft 511 kts 15°
2026-05-05 17:11 56.90099 6.60528 39002 ft 514 kts 21°
2026-05-05 17:11 56.96473 6.66528 39003 ft 515 kts 23°
2026-05-05 17:12 57.02776 6.72836 39000 ft 517 kts 27°
2026-05-05 17:12 57.08983 6.79516 38998 ft 517 kts 27°
2026-05-05 17:13 57.15190 6.86226 38998 ft 517 kts 27°
2026-05-05 17:13 57.21387 6.92979 38995 ft 517 kts 27°
2026-05-05 17:14 57.27536 6.99709 38993 ft 517 kts 27°
2026-05-05 17:14 57.33719 7.06504 38991 ft 517 kts 27°
2026-05-05 17:15 57.39912 7.13336 38988 ft 518 kts 27°
2026-05-05 17:15 57.46095 7.20185 39010 ft 518 kts 27°
2026-05-05 17:16 57.52287 7.27072 38980 ft 519 kts 27°
2026-05-05 17:16 57.58478 7.33985 38980 ft 519 kts 27°
2026-05-05 17:17 57.64668 7.40925 38974 ft 519 kts 27°
2026-05-05 17:17 57.70812 7.47840 39005 ft 519 kts 27°
2026-05-05 17:18 57.77004 7.54838 38961 ft 520 kts 27°
2026-05-05 17:18 57.83193 7.61861 38954 ft 520 kts 27°
2026-05-05 17:19 57.89379 7.68909 38953 ft 520 kts 27°
2026-05-05 17:19 57.95560 7.75979 38947 ft 520 kts 27°
2026-05-05 17:20 58.01714 7.83048 38941 ft 522 kts 27°
2026-05-05 17:20 58.07893 7.90251 38937 ft 523 kts 30°
2026-05-05 17:21 58.12747 7.97142 38937 ft 526 kts 34°